ONEWEB-0119, 47265

Orbit data source: Space-Track

ONEWEB-0119, 47265 is a payload satellite owned by One Web (UK) in LEO that was launched on Fri, 18 Dec 2020 UTC via a SOYUZ-2-1B launch vehicle from the Vostochny Cosmodrome (VOSTO). Payload-class satellites include a variety of spacecraft equipped with specific instruments for various scientific and technological missions. These include communications satellites like Starlink; space stations such as the ISS; scientific satellites like the Hubble; Earth observation satellites from companies like Planet Labs, Umbra, and HawkEye 360; GPS; miniature CubeSats for education and research; and military/defense satellites.

Loading next visibility...
Identifier
47265, 2020-100H
Orbit
LEO
Country
Flag of UKUK
Related business
Manufacturer
One Web
Mission
Operational Commercial Communications
Bus & Motor
ARROW, Unknown motor
Mass
148 kg wet, ~140 kg dry
Launch date (UTC)
2020-12-18 (5 years ago)
Launch vehicle
SOYUZ-2-1B
Launch site
Vostochny Cosmodrome (VOSTO)
Object type
Payload
Rocket body
Debris
Shape & HBR
Trap Box + 2 Pan, 6.7 m
Radar Cross Section
3.464 m², Large (>1 m²)

Expand to show TLE details & history
Last TLE update: 6 hours ago

TLE from 6 hours ago
0 ONEWEB-0119
1 47265U 20100H   26095.47484740 -.00000456  00000-0 -13038-2 0  9991
2 47265  87.9005   5.1145 0001767  78.0686 282.0640 13.12444013255161
Epoch: 2026-04-05T11:23Z
TLE epoch observation values (Epoch: 2026-04-05T11:23:46.815Z)
Latitude
-0.00007°
Longitude
0.38969°
Altitude
1,216.33 km
Speed
7.246 km/s
True Right ascension
00h 20m 27s
True Declination
0° 00' 00"
Sunlit
Object was in daylight at epoch
Visualization orbit readout
Latitude
Unknown
Longitude
Unknown
Altitude
Unknown
Speed
Unknown
Apparent Right ascension
Unknown
Apparent Declination
Unknown
Sunlit
N/A
Visualization observer readout
Local Sidereal Time
22:55:02
Azimuth
Unknown
Elevation
Unknown
Doppler factor
Unknown
Orbital elements
Apogee altitude
1,212.177 km
Perigee altitude
1,209.495 km
Semi-major axis
7,588.973 km
Eccentricity
0.00018
Inclination
87.9005°
RAAN
5.1145°
Arg. of periapsis
78.0686°
True anomaly
282.0442°
Mean anomaly
282.064°
Eccentric anomaly
282.0541°
Mean motion
3.28298 °/min
Orbital period
109.66 mins
BSTAR
-0.0013038
Loading maneuver chart data...
Computing Atmospheric mass density...
Loading historical data...
Loading historical data...
Loading historical data...
Loading historical data...
Loading historical data...
Loading historical data...
Loading historical data...

Documentation

Showing up to 5 results
|